SL-8 DEB

基本信息
目录编号:
1335
目录名称:
SL-8 DEB
国际标识:
1965-020E
轨道中心:
EARTH
物体状态:
在轨
发射日期:
1965-03-15 UTC
轨道信息
数据来源: 国际轨道数据
星历时间: 2026-09-04T17:29:08+0800
半长轴: 7314.1km
偏心率: 0.0521859
轨道倾角: 56.076°
近地点辐角: 283.395°
升交点赤经: 49.323°
平近点角: 70.938°
近地点: 554.27km
远地点: 1317.656km
周期: 103.753分钟
每日圈数: 13.879104
详细信息
发射场:
TTMTR
轨道高度:
LEO
数据来源:
AOE Integration Group
参考系:
TEME
时间系统:
UTC
历元类型:
SGP4
2D轨道图
3D轨道图
轨道高度分析图
轨道倾角分析图
轨道综合分析图
查看轨道综合分析图